IJM612 LFML-EGLF

Flight info

Callsign IJM612
Flight time 1h 37m
Altitude 34000
Route ETREK DCT MADOT DCT MOPEM DCT CACHI DCT AVLON DCT OKRIX/N0458F380 DCT BRY DCT CLM DCT KOPOR DCT SOSUN DCT SUBIP UM8 ELDAX
Aircraft CL60/M-SBDE1E2E3FGHIJ1J4J5J7M3RWXYZ/LB1V1D1

Departure

Time 2026-04-20 18:19
Airport Marseille Provence Airport (LFML)

Arrival

Time 2026-04-20 19:56
Airport Farnborough Airport (EGLF)
Time Latitude Longitude Altitude Speed Heading
2026-04-20 17:04 43.44405 5.21364 17 ft 0 kts 61°
2026-04-20 18:13 43.44407 5.21369 15 ft 2 kts 61°
2026-04-20 18:13 43.44398 5.21400 15 ft 3 kts 156°
2026-04-20 18:13 43.44372 5.21404 16 ft 4 kts 180°
2026-04-20 18:14 43.44333 5.21414 16 ft 7 kts 151°
2026-04-20 18:14 43.44286 5.21388 17 ft 9 kts 242°
2026-04-20 18:14 43.44262 5.21327 18 ft 7 kts 241°
2026-04-20 18:14 43.44231 5.21250 18 ft 11 kts 241°
2026-04-20 18:15 43.44171 5.21174 19 ft 13 kts 184°
2026-04-20 18:15 43.44087 5.21248 21 ft 17 kts 134°
2026-04-20 18:15 43.43974 5.21404 23 ft 27 kts 135°
2026-04-20 18:15 43.43924 5.21540 24 ft 14 kts 72°
2026-04-20 18:16 43.43977 5.21637 23 ft 0 kts 63°
2026-04-20 18:16 43.43982 5.21655 23 ft 6 kts 76°
2026-04-20 18:16 43.43953 5.21742 25 ft 11 kts 134°
2026-04-20 18:16 43.43885 5.21838 28 ft 16 kts 134°
2026-04-20 18:17 43.43796 5.21961 32 ft 19 kts 134°
2026-04-20 18:17 43.43683 5.22072 37 ft 20 kts 151°
2026-04-20 18:17 43.43561 5.22168 43 ft 19 kts 149°
2026-04-20 18:17 43.43447 5.22260 50 ft 15 kts 150°
2026-04-20 18:18 43.43360 5.22259 52 ft 13 kts 219°
2026-04-20 18:18 43.43331 5.22124 51 ft 17 kts 271°
2026-04-20 18:18 43.43342 5.21980 48 ft 15 kts 295°
2026-04-20 18:18 43.43475 5.21781 41 ft 71 kts 314°
2026-04-20 18:19 43.44075 5.20935 116 ft 162 kts 312°
2026-04-20 18:19 43.44931 5.19750 961 ft 186 kts 313°
2026-04-20 18:19 43.45840 5.18471 2046 ft 201 kts 315°
2026-04-20 18:19 43.46855 5.17033 3160 ft 223 kts 315°
2026-04-20 18:20 43.47952 5.15491 4498 ft 235 kts 315°
2026-04-20 18:20 43.49080 5.13892 5893 ft 242 kts 315°
2026-04-20 18:20 43.50238 5.12241 7300 ft 247 kts 314°
2026-04-20 18:20 43.51443 5.10535 8621 ft 255 kts 314°
2026-04-20 18:21 43.52666 5.08790 10000 ft 260 kts 313°
2026-04-20 18:21 43.53904 5.07026 11383 ft 263 kts 313°
2026-04-20 18:21 43.55169 5.05223 12492 ft 275 kts 313°
2026-04-20 18:21 43.56535 5.03268 13508 ft 289 kts 313°
2026-04-20 18:22 43.57956 5.01241 14436 ft 304 kts 313°
2026-04-20 18:22 43.59470 4.99101 15344 ft 318 kts 314°
2026-04-20 18:22 43.61031 4.96912 16261 ft 329 kts 314°
2026-04-20 18:22 43.62658 4.94618 17144 ft 340 kts 314°
2026-04-20 18:23 43.64322 4.92266 17987 ft 350 kts 314°
2026-04-20 18:23 43.66029 4.89852 18959 ft 355 kts 314°
2026-04-20 18:23 43.67952 4.87659 19885 ft 362 kts 326°
2026-04-20 18:23 43.70255 4.86179 20754 ft 370 kts 338°
2026-04-20 18:24 43.72722 4.85155 21633 ft 376 kts 341°
2026-04-20 18:24 43.75313 4.84173 22334 ft 384 kts 340°
2026-04-20 18:24 43.77934 4.83154 22971 ft 392 kts 340°
2026-04-20 18:24 43.80579 4.82124 23682 ft 397 kts 340°
2026-04-20 18:25 43.83289 4.81066 24358 ft 403 kts 340°
2026-04-20 18:25 43.86031 4.79994 25038 ft 408 kts 340°
2026-04-20 18:25 43.88780 4.78916 25686 ft 412 kts 340°
2026-04-20 18:25 43.91553 4.77828 26310 ft 417 kts 340°
2026-04-20 18:26 43.94390 4.76713 26880 ft 421 kts 340°
2026-04-20 18:26 43.97240 4.75591 27457 ft 424 kts 340°
2026-04-20 18:26 44.00117 4.74503 27994 ft 429 kts 341°
2026-04-20 18:26 44.03064 4.73576 28473 ft 434 kts 343°
2026-04-20 18:27 44.06042 4.72671 28967 ft 437 kts 343°
2026-04-20 18:27 44.09045 4.71754 29412 ft 440 kts 343°
2026-04-20 18:27 44.12057 4.70833 29959 ft 440 kts 343°
2026-04-20 18:27 44.14997 4.69934 30562 ft 438 kts 343°
2026-04-20 18:28 44.18024 4.69006 31179 ft 436 kts 342°
2026-04-20 18:28 44.20954 4.68106 31790 ft 433 kts 342°
2026-04-20 18:28 44.23887 4.67204 32349 ft 431 kts 342°
2026-04-20 18:28 44.26781 4.66311 32896 ft 429 kts 342°
2026-04-20 18:29 44.29703 4.65409 33416 ft 427 kts 342°
2026-04-20 18:29 44.32621 4.64506 33887 ft 426 kts 342°
2026-04-20 18:29 44.35565 4.63594 34306 ft 426 kts 342°
2026-04-20 18:29 44.38466 4.62694 34748 ft 425 kts 342°
2026-04-20 18:30 44.41390 4.61786 35108 ft 424 kts 342°
2026-04-20 18:30 44.44273 4.60889 35455 ft 424 kts 342°
2026-04-20 18:30 44.47172 4.59986 35818 ft 422 kts 342°
2026-04-20 18:30 44.50040 4.59092 36161 ft 421 kts 342°
2026-04-20 18:31 44.52898 4.58200 36480 ft 420 kts 342°
2026-04-20 18:31 44.55797 4.57295 36828 ft 420 kts 342°
2026-04-20 18:31 44.58642 4.56405 37195 ft 420 kts 342°
2026-04-20 18:31 44.61518 4.55504 37493 ft 421 kts 342°
2026-04-20 18:32 44.64382 4.54664 37745 ft 424 kts 345°
2026-04-20 18:32 44.67366 4.54257 37970 ft 432 kts 353°
2026-04-20 18:32 44.70405 4.54433 37972 ft 443 kts
2026-04-20 18:32 44.73480 4.55014 37967 ft 448 kts
2026-04-20 18:33 44.79683 4.56237 37979 ft 449 kts
2026-04-20 18:33 44.85893 4.57458 37981 ft 448 kts
2026-04-20 18:34 44.92099 4.58678 37982 ft 447 kts
2026-04-20 18:34 44.98320 4.59901 37988 ft 447 kts
2026-04-20 18:35 45.04513 4.61119 37991 ft 447 kts
2026-04-20 18:35 45.10654 4.62328 37996 ft 447 kts
2026-04-20 18:36 45.16865 4.63481 37989 ft 443 kts 358°
2026-04-20 18:36 45.22957 4.62937 37990 ft 432 kts 345°
2026-04-20 18:37 45.28915 4.61582 37998 ft 432 kts 346°
2026-04-20 18:37 45.34935 4.60214 37999 ft 432 kts 346°
2026-04-20 18:38 45.40926 4.58847 37997 ft 432 kts 346°
2026-04-20 18:38 45.46872 4.57486 38004 ft 432 kts 346°
2026-04-20 18:39 45.52824 4.56119 38006 ft 432 kts 346°
2026-04-20 18:39 45.58786 4.54746 38001 ft 432 kts 346°
2026-04-20 18:40 45.64693 4.53382 38000 ft 432 kts 346°
2026-04-20 18:40 45.70646 4.52004 38005 ft 432 kts 346°
2026-04-20 18:41 45.76602 4.50622 38009 ft 432 kts 346°
2026-04-20 18:41 45.82570 4.49234 38001 ft 431 kts 345°
2026-04-20 18:42 45.88481 4.47856 38007 ft 431 kts 346°
2026-04-20 18:42 45.94432 4.46465 38009 ft 431 kts 346°
2026-04-20 18:43 46.00353 4.45078 38008 ft 431 kts 346°
2026-04-20 18:43 46.06292 4.43685 38024 ft 431 kts 346°
2026-04-20 18:44 46.12242 4.42284 38009 ft 432 kts 346°
2026-04-20 18:44 46.18202 4.40880 38004 ft 431 kts 346°
2026-04-20 18:45 46.24118 4.39482 38008 ft 430 kts 346°
2026-04-20 18:45 46.30067 4.37936 38026 ft 427 kts 342°
2026-04-20 18:46 46.35863 4.35895 38012 ft 428 kts 341°
2026-04-20 18:46 46.41713 4.33835 38024 ft 427 kts 341°
2026-04-20 18:47 46.47505 4.31793 38027 ft 427 kts 341°
2026-04-20 18:47 46.53281 4.29754 38018 ft 426 kts 341°
2026-04-20 18:48 46.59108 4.27694 38026 ft 427 kts 341°
2026-04-20 18:48 46.64908 4.25640 38022 ft 427 kts 341°
2026-04-20 18:49 46.70718 4.23578 38023 ft 427 kts 341°
2026-04-20 18:49 46.76526 4.21514 38037 ft 427 kts 341°
2026-04-20 18:50 46.82339 4.19444 38037 ft 426 kts 341°
2026-04-20 18:50 46.88160 4.17366 38027 ft 427 kts 341°
2026-04-20 18:51 46.93928 4.15303 38039 ft 427 kts 341°
2026-04-20 18:51 46.99742 4.13219 38042 ft 426 kts 341°
2026-04-20 18:52 47.05527 4.11138 38023 ft 426 kts 341°
2026-04-20 18:52 47.11102 4.08178 38039 ft 421 kts 333°
2026-04-20 18:53 47.16550 4.04945 38033 ft 422 kts 333°
2026-04-20 18:53 47.22017 4.01699 38045 ft 422 kts 334°
2026-04-20 18:54 47.27487 3.98447 38050 ft 422 kts 334°
2026-04-20 18:54 47.32993 3.95168 38042 ft 422 kts 334°
2026-04-20 18:55 47.38469 3.91901 38052 ft 421 kts 334°
2026-04-20 18:55 47.43941 3.88631 38055 ft 421 kts 334°
2026-04-20 18:56 47.49401 3.85362 38060 ft 421 kts 334°
2026-04-20 18:56 47.54839 3.82098 38061 ft 422 kts 334°
2026-04-20 18:57 47.60310 3.78809 38067 ft 423 kts 334°
2026-04-20 18:57 47.65819 3.75492 38068 ft 423 kts 334°
2026-04-20 18:58 47.71267 3.72204 38066 ft 422 kts 334°
2026-04-20 18:58 47.76733 3.68897 38072 ft 421 kts 334°
2026-04-20 18:59 47.82180 3.65595 38083 ft 422 kts 334°
2026-04-20 18:59 47.87639 3.62277 38070 ft 422 kts 334°
2026-04-20 19:00 47.93115 3.58942 38083 ft 423 kts 334°
2026-04-20 19:00 47.98555 3.55618 38088 ft 422 kts 334°
2026-04-20 19:01 48.04013 3.52265 38090 ft 422 kts 334°
2026-04-20 19:01 48.09471 3.48906 38099 ft 422 kts 334°
2026-04-20 19:02 48.14954 3.45522 38088 ft 423 kts 334°
2026-04-20 19:02 48.20429 3.42136 38103 ft 423 kts 334°
2026-04-20 19:03 48.25875 3.38761 38105 ft 423 kts 334°
2026-04-20 19:03 48.31354 3.35357 38101 ft 423 kts 334°
2026-04-20 19:04 48.36835 3.31944 38092 ft 422 kts 334°
2026-04-20 19:04 48.42269 3.28539 38105 ft 422 kts 333°
2026-04-20 19:05 48.47733 3.25056 38115 ft 423 kts 333°
2026-04-20 19:05 48.53194 3.21568 38102 ft 423 kts 333°
2026-04-20 19:06 48.58599 3.18107 38107 ft 422 kts 334°
2026-04-20 19:06 48.64038 3.14617 38116 ft 422 kts 333°
2026-04-20 19:07 48.69426 3.11151 38109 ft 423 kts 334°
2026-04-20 19:07 48.74874 3.07639 38117 ft 423 kts 334°
2026-04-20 19:08 48.83030 3.02366 38124 ft 424 kts 334°
2026-04-20 19:09 48.88238 2.98229 38121 ft 421 kts 327°
2026-04-20 19:09 48.93353 2.93739 38125 ft 422 kts 327°
2026-04-20 19:10 48.98460 2.89252 38130 ft 421 kts 327°
2026-04-20 19:10 49.03555 2.84769 38132 ft 422 kts 328°
2026-04-20 19:11 49.08684 2.80248 38137 ft 422 kts 328°
2026-04-20 19:11 49.13795 2.75735 38140 ft 422 kts 328°
2026-04-20 19:12 49.18565 2.71514 38121 ft 422 kts 328°
2026-04-20 19:12 49.23747 2.66919 38151 ft 423 kts 328°
2026-04-20 19:13 49.28880 2.62357 38126 ft 423 kts 328°
2026-04-20 19:13 49.33982 2.57812 38140 ft 423 kts 328°
2026-04-20 19:14 49.39009 2.53324 38148 ft 423 kts 328°
2026-04-20 19:14 49.44128 2.48744 38150 ft 423 kts 328°
2026-04-20 19:15 49.49169 2.44156 38156 ft 421 kts 325°
2026-04-20 19:15 49.53509 2.38198 38153 ft 418 kts 310°
2026-04-20 19:16 49.57216 2.31212 38152 ft 420 kts 308°
2026-04-20 19:16 49.60914 2.24211 38168 ft 419 kts 308°
2026-04-20 19:17 49.64578 2.17252 38158 ft 419 kts 309°
2026-04-20 19:17 49.68143 2.10460 38020 ft 422 kts 308°
2026-04-20 19:17 49.69989 2.06936 37769 ft 423 kts 308°
2026-04-20 19:18 49.71858 2.03365 37522 ft 421 kts 308°
2026-04-20 19:18 49.73676 1.99884 37283 ft 419 kts 308°
2026-04-20 19:18 49.75515 1.96358 37050 ft 418 kts 308°
2026-04-20 19:18 49.77330 1.92873 36794 ft 417 kts 308°
2026-04-20 19:19 49.79156 1.89363 36546 ft 416 kts 308°
2026-04-20 19:19 49.80971 1.85867 36301 ft 415 kts 308°
2026-04-20 19:19 49.82780 1.82381 36058 ft 414 kts 308°
2026-04-20 19:19 49.84597 1.78873 35778 ft 415 kts 308°
2026-04-20 19:20 49.86397 1.75393 35382 ft 414 kts 308°
2026-04-20 19:20 49.88224 1.71858 34892 ft 411 kts 308°
2026-04-20 19:20 49.90016 1.68385 34402 ft 409 kts 308°
2026-04-20 19:20 49.91781 1.64959 33834 ft 407 kts 307°
2026-04-20 19:21 49.93549 1.61523 33296 ft 405 kts 307°
2026-04-20 19:21 49.95323 1.58072 32761 ft 404 kts 307°
2026-04-20 19:21 49.97046 1.54626 32258 ft 402 kts 304°
2026-04-20 19:21 49.98471 1.50902 31761 ft 400 kts 297°
2026-04-20 19:22 49.99725 1.47047 31409 ft 399 kts 297°
2026-04-20 19:22 50.00984 1.43178 31079 ft 398 kts 297°
2026-04-20 19:22 50.02241 1.39310 30755 ft 398 kts 297°
2026-04-20 19:22 50.03500 1.35427 30427 ft 397 kts 297°
2026-04-20 19:23 50.04742 1.31586 30106 ft 395 kts 296°
2026-04-20 19:23 50.05983 1.27743 29796 ft 392 kts 296°
2026-04-20 19:23 50.07217 1.23917 29543 ft 390 kts 296°
2026-04-20 19:23 50.08437 1.20124 29306 ft 390 kts 296°
2026-04-20 19:24 50.09647 1.16356 29064 ft 389 kts 296°
2026-04-20 19:24 50.10864 1.12558 28822 ft 388 kts 296°
2026-04-20 19:24 50.12066 1.08801 28580 ft 387 kts 296°
2026-04-20 19:24 50.13262 1.05057 28333 ft 385 kts 296°
2026-04-20 19:25 50.14464 1.01288 28084 ft 384 kts 296°
2026-04-20 19:25 50.15641 0.97589 27835 ft 383 kts 296°
2026-04-20 19:25 50.16835 0.93831 27588 ft 382 kts 296°
2026-04-20 19:25 50.17845 0.90648 27373 ft 381 kts 296°
2026-04-20 19:26 50.19026 0.86923 27119 ft 379 kts 296°
2026-04-20 19:26 50.20197 0.83223 26869 ft 378 kts 296°
2026-04-20 19:26 50.21283 0.79782 26643 ft 378 kts 296°
2026-04-20 19:26 50.22449 0.76083 26391 ft 376 kts 296°
2026-04-20 19:27 50.23601 0.72425 26140 ft 375 kts 296°
2026-04-20 19:27 50.24756 0.68754 25890 ft 374 kts 296°
2026-04-20 19:27 50.25911 0.65077 25641 ft 373 kts 296°
2026-04-20 19:27 50.27053 0.61435 25379 ft 371 kts 296°
2026-04-20 19:28 50.28196 0.57781 25133 ft 371 kts 296°
2026-04-20 19:28 50.29335 0.54139 24891 ft 371 kts 296°
2026-04-20 19:28 50.30473 0.50490 24630 ft 369 kts 296°
2026-04-20 19:28 50.31598 0.46881 24379 ft 368 kts 296°
2026-04-20 19:29 50.32726 0.43257 24120 ft 367 kts 296°
2026-04-20 19:29 50.33842 0.39663 23877 ft 366 kts 296°
2026-04-20 19:29 50.34967 0.36035 23615 ft 365 kts 296°
2026-04-20 19:29 50.36077 0.32452 23375 ft 365 kts 296°
2026-04-20 19:30 50.37180 0.28888 23119 ft 363 kts 296°
2026-04-20 19:30 50.38282 0.25317 22880 ft 363 kts 296°
2026-04-20 19:30 50.39378 0.21763 22623 ft 361 kts 296°
2026-04-20 19:30 50.40477 0.18196 22370 ft 361 kts 296°
2026-04-20 19:31 50.41573 0.14630 22117 ft 360 kts 296°
2026-04-20 19:31 50.42664 0.11076 21870 ft 360 kts 296°
2026-04-20 19:31 50.43747 0.07543 21626 ft 360 kts 296°
2026-04-20 19:31 50.44839 0.03977 21374 ft 359 kts 296°
2026-04-20 19:32 50.45926 0.00421 21131 ft 358 kts 296°
2026-04-20 19:32 50.47001 -0.03099 20872 ft 358 kts 296°
2026-04-20 19:32 50.48089 -0.06673 20620 ft 357 kts 297°
2026-04-20 19:32 50.49155 -0.10174 20371 ft 357 kts 296°
2026-04-20 19:33 50.50232 -0.13719 20125 ft 357 kts 297°
2026-04-20 19:33 50.51298 -0.17231 19868 ft 357 kts 297°
2026-04-20 19:33 50.52374 -0.20779 19624 ft 357 kts 297°
2026-04-20 19:33 50.53441 -0.24308 19381 ft 356 kts 297°
2026-04-20 19:34 50.54507 -0.27835 19119 ft 355 kts 297°
2026-04-20 19:34 50.55571 -0.31364 18877 ft 355 kts 297°
2026-04-20 19:34 50.56625 -0.34860 18624 ft 355 kts 297°
2026-04-20 19:34 50.57681 -0.38370 18378 ft 355 kts 297°
2026-04-20 19:35 50.58831 -0.41770 18126 ft 353 kts 306°
2026-04-20 19:35 50.60456 -0.44661 17866 ft 352 kts 315°
2026-04-20 19:35 50.62203 -0.47382 17612 ft 352 kts 315°
2026-04-20 19:35 50.63940 -0.50110 17361 ft 351 kts 315°
2026-04-20 19:36 50.65676 -0.52841 17100 ft 351 kts 315°
2026-04-20 19:36 50.67398 -0.55554 16738 ft 353 kts 315°
2026-04-20 19:36 50.69221 -0.58101 16316 ft 349 kts 326°
2026-04-20 19:36 50.71337 -0.59992 15863 ft 348 kts 332°
2026-04-20 19:37 50.73480 -0.61783 15434 ft 347 kts 332°
2026-04-20 19:37 50.75615 -0.63581 15002 ft 346 kts 332°
2026-04-20 19:37 50.77724 -0.65360 14605 ft 344 kts 331°
2026-04-20 19:37 50.79794 -0.67110 14164 ft 338 kts 332°
2026-04-20 19:38 50.81877 -0.68874 13750 ft 334 kts 332°
2026-04-20 19:38 50.83934 -0.70620 13336 ft 329 kts 332°
2026-04-20 19:38 50.85917 -0.72297 12938 ft 323 kts 333°
2026-04-20 19:38 50.87989 -0.73558 12539 ft 316 kts 343°
2026-04-20 19:39 50.90075 -0.74539 12144 ft 309 kts 343°
2026-04-20 19:39 50.92143 -0.75522 11757 ft 303 kts 343°
2026-04-20 19:39 50.94130 -0.76470 11388 ft 296 kts 343°
2026-04-20 19:39 50.96087 -0.77406 11016 ft 289 kts 343°
2026-04-20 19:40 50.98000 -0.78323 10685 ft 282 kts 344°
2026-04-20 19:40 50.99856 -0.79215 10330 ft 277 kts 344°
2026-04-20 19:40 51.01736 -0.79797 9989 ft 275 kts
2026-04-20 19:40 51.03657 -0.79433 9652 ft 273 kts
2026-04-20 19:41 51.05521 -0.78979 9302 ft 273 kts
2026-04-20 19:41 51.07406 -0.78531 8976 ft 270 kts
2026-04-20 19:41 51.09243 -0.78032 8638 ft 266 kts 12°
2026-04-20 19:41 51.11054 -0.77462 8299 ft 261 kts 12°
2026-04-20 19:42 51.12841 -0.76900 7797 ft 262 kts 12°
2026-04-20 19:42 51.14579 -0.76272 7445 ft 256 kts 17°
2026-04-20 19:42 51.16239 -0.75510 7123 ft 250 kts 18°
2026-04-20 19:42 51.17798 -0.74405 6801 ft 242 kts 37°
2026-04-20 19:43 51.18906 -0.72432 6493 ft 235 kts 55°
2026-04-20 19:43 51.19805 -0.70263 6186 ft 230 kts 56°
2026-04-20 19:43 51.20679 -0.68174 5913 ft 224 kts 56°
2026-04-20 19:43 51.21533 -0.66133 5635 ft 219 kts 55°
2026-04-20 19:44 51.22351 -0.64179 5372 ft 214 kts 55°
2026-04-20 19:44 51.23168 -0.62227 5113 ft 209 kts 56°
2026-04-20 19:44 51.23963 -0.60361 4992 ft 202 kts 51°
2026-04-20 19:44 51.25127 -0.59143 4989 ft 207 kts 12°
2026-04-20 19:45 51.26591 -0.59226 4906 ft 215 kts 351°
2026-04-20 19:45 51.27934 -0.60118 4676 ft 221 kts 331°
2026-04-20 19:45 51.29046 -0.61847 4490 ft 222 kts 307°
2026-04-20 19:45 51.29609 -0.64147 4443 ft 232 kts 281°
2026-04-20 19:46 51.29619 -0.66773 4290 ft 236 kts 270°
2026-04-20 19:46 51.29536 -0.69330 4147 ft 235 kts 270°
2026-04-20 19:46 51.29459 -0.71909 4008 ft 235 kts 270°
2026-04-20 19:46 51.29380 -0.74511 3995 ft 234 kts 270°
2026-04-20 19:47 51.29301 -0.77127 3996 ft 235 kts 270°
2026-04-20 19:47 51.29221 -0.79726 3995 ft 235 kts 270°
2026-04-20 19:47 51.29140 -0.82373 3877 ft 237 kts 270°
2026-04-20 19:47 51.29059 -0.84974 3727 ft 235 kts 270°
2026-04-20 19:48 51.28976 -0.87599 3580 ft 234 kts 270°
2026-04-20 19:48 51.28894 -0.90179 3435 ft 234 kts 270°
2026-04-20 19:48 51.28811 -0.92799 3295 ft 233 kts 270°
2026-04-20 19:48 51.28727 -0.95388 3173 ft 233 kts 270°
2026-04-20 19:49 51.28643 -0.97990 3048 ft 233 kts 270°
2026-04-20 19:49 51.28559 -1.00585 2920 ft 233 kts 269°
2026-04-20 19:49 51.28474 -1.03171 2797 ft 233 kts 270°
2026-04-20 19:49 51.28182 -1.05745 2670 ft 235 kts 245°
2026-04-20 19:50 51.27104 -1.07634 2550 ft 231 kts 206°
2026-04-20 19:50 51.25597 -1.08113 2499 ft 219 kts 166°
2026-04-20 19:50 51.24139 -1.07478 2505 ft 218 kts 156°
2026-04-20 19:50 51.22708 -1.06696 2499 ft 211 kts 156°
2026-04-20 19:51 51.21341 -1.05943 2513 ft 199 kts 154°
2026-04-20 19:51 51.20238 -1.04788 2511 ft 177 kts 125°
2026-04-20 19:51 51.19748 -1.03183 2519 ft 154 kts 97°
2026-04-20 19:51 51.19741 -1.01451 2493 ft 155 kts 78°
2026-04-20 19:52 51.20085 -0.99806 2478 ft 152 kts 64°
2026-04-20 19:52 51.20586 -0.98313 2471 ft 153 kts 60°
2026-04-20 19:52 51.21122 -0.96831 2484 ft 154 kts 60°
2026-04-20 19:52 51.21637 -0.95353 2510 ft 147 kts 61°
2026-04-20 19:53 51.22121 -0.93920 2511 ft 146 kts 61°
2026-04-20 19:53 51.22594 -0.92504 2496 ft 145 kts 61°
2026-04-20 19:53 51.23077 -0.91059 2300 ft 145 kts 62°
2026-04-20 19:53 51.23547 -0.89655 2084 ft 143 kts 62°
2026-04-20 19:54 51.24020 -0.88241 1857 ft 143 kts 62°
2026-04-20 19:54 51.24462 -0.86925 1647 ft 130 kts 62°
2026-04-20 19:54 51.24844 -0.85787 1509 ft 111 kts 62°
2026-04-20 19:54 51.25206 -0.84709 1292 ft 111 kts 61°
2026-04-20 19:55 51.25571 -0.83635 1094 ft 109 kts 60°
2026-04-20 19:55 51.25932 -0.82573 925 ft 110 kts 61°
2026-04-20 19:55 51.26295 -0.81473 786 ft 111 kts 61°
2026-04-20 19:55 51.26660 -0.80368 616 ft 113 kts 61°
2026-04-20 19:56 51.26905 -0.79636 480 ft 112 kts 60°
2026-04-20 19:56 51.27392 -0.78183 244 ft 106 kts 61°
2026-04-20 19:56 51.27631 -0.77468 241 ft 35 kts 59°
2026-04-20 19:56 51.27739 -0.77150 241 ft 22 kts 62°
2026-04-20 19:57 51.27825 -0.77001 241 ft 18 kts 34°
2026-04-20 19:57 51.27940 -0.76877 241 ft 16 kts 33°
2026-04-20 19:57 51.28021 -0.76791 241 ft 5 kts 34°
2026-04-20 19:57 51.28061 -0.76808 241 ft 9 kts 288°
2026-04-20 19:58 51.28087 -0.76936 241 ft 14 kts 287°
2026-04-20 19:58 51.28123 -0.77110 241 ft 18 kts 289°
2026-04-20 19:58 51.28162 -0.77307 241 ft 20 kts 287°
2026-04-20 19:58 51.28204 -0.77511 241 ft 15 kts 293°
2026-04-20 19:59 51.28251 -0.77658 241 ft 8 kts 300°
2026-04-20 19:59 51.28255 -0.77719 241 ft 2 kts 201°
2026-04-20 19:59 51.28254 -0.77719 241 ft 0 kts 200°
2026-04-20 20:00 51.28255 -0.77719 241 ft 0 kts 200°